Weather in Marikina

Philippines     14°37′58″N   121°05′54″E
temp.,
°C
wind,
m/s
gust,
m/s
humid.,
%
clouds,
%
prec.,
mm/h
press.,
hPa
HPBL,
m
27 september, mon
mon2723:00+26ene22805 1.0 100984
02:00+26e1282100 1.1 100762
05:00+26ese128499 0.0 100777
08:00+28ene007346 0.0 1009377
11:00+32wsw2264100 0.9 10081031
14:00+32wsw326487 4.2 1005919
17:00+30wsw3371100 2.0 1006265
20:00+28nw017861 2.4 100841
28 september, tue
tue2823:00+27e118187 0.2 100854
02:00+26se118687 1.4 100729
05:00+25ene128733 0.3 100752
08:00+28nne00766 0.3 1008310
11:00+31sw216224 0.1 10081160
14:00+31wsw336057 0.6 1006982
17:00+30wsw236814 0.6 1006461
20:00+28ene117738 1.3 100869
29 september, wed
wed2923:00+27ene1185100 0.8 100849
02:00+26nne118711 1.0 100741
05:00+26e11895 0.2 100740
08:00+28nw11795 0.3 1008405
11:00+31wsw336420 0.4 10081165
14:00+32sw445914 0.5 10061139
17:00+30ssw34707 0.4 1006438
20:00+28w127611 0.6 1008214
30 september, thu
thu3023:00+27nw018299 0.1 1009120
02:00+26nw018794 0.2 1007116
05:00+25nne11906 0.1 100869
08:00+28nnw117977 0.1 1009416
11:00+31w326128 0.0 10091272
14:00+31wsw436235 0.1 1007957
17:00+30sw336942 0.7 1007493
20:00+27e0181100 2.6 100935
1 october, fri
fri123:00+27ese0186100 1.0 100967
02:00+26nne1188100 1.1 100871
05:00+25ne2289100 0.1 100969
08:00+27n1281100 0.1 1010322
11:00+31nnw2265100 0.0 1010999
14:00+31w3262100 0.3 10071075
17:00+30sw2270100 0.1 1008327
20:00+28se1175100 0.3 1010124